Terminal Aerodrome Forecast
Issued by NWS St Louis, MO

Home | Current Version | Previous Version | Text Only | Print | Product List | Glossary On
Versions: 1 2 3 4 5 6 7 8 9 10 11 12 13 14 15 16 17 18 19 20 21
000
FTUS43 KLSX 261700
TAFCOU
TAF
KCOU 261737Z 2618/2718 28012KT P6SM VCSH OVC012
     FM270000 32014KT P6SM OVC010
     FM271400 32009KT P6SM SCT020 BKN250=

USA.gov is the U.S. government's official web portal to all federal, state and local government web resources and services.